Regional Weather Roundup
Issued by NWS

Home | Current Version | Previous Version | Text Only | Print | Product List | Glossary On
Versions: 1 2 3 4 5 6 7 8 9 10 11 12 13 14 15 16 17 18 19 20 21 22 23 24 25 26 27 28 29 30 31 32 33 34 35 36 37 38 39 40 41 42 43 44 45 46 47 48 49 50
000
ASPQ40 PGUM 170512
RWRPQ
WEATHER ROUNDUP FOR THE MARIANAS AND MICRONESIA
NATIONAL WEATHER SERVICE TIYAN GU
300 PM CHST WED SEP 17 2014

GUZ001>004-170600-
MARIANA ISLANDS-

CITY           SKY/WX    TMP DP  RH WIND       PRES   REMARKS
GUAM AIRPORT   MOSUNNY   79  75  89 SE6       29.90F
ANDERSEN AFB   DRIZZLE   77  73  88 SE9       29.89F
ROTA AIRPORT   PTSUNNY   77  75  94 S10       29.91S
TINIAN AP      PTSUNNY   81  77  89 S10       29.87R
SAIPAN AP      PTSUNNY   82  75  78 S15G21    29.87S

$$

PMZ161-170600-
REPUBLIC OF PALAU-

CITY           SKY/WX    TMP DP  RH WIND       PRES   REMARKS
KOROR AP       NOT AVBL
KOROR WSO      CLOUDY    86  77  74 W14       29.73F HX  97

$$

PMZ171>174-170600-
FEDERATED STATES OF MICRONESIA-

CITY           SKY/WX    TMP DP  RH WIND       PRES   REMARKS
YAP AIRPORT    PTSUNNY   88  79  74 SW14      29.74S HX 102
CHUUK AP       PTSUNNY   88  81  79 N7        29.79F HX 105
POHNPEI AP     NOT AVBL
POHNPEI WSO    LGT RAIN  82  77  83 SW7       29.80F HX  91
KOSRAE AP      NOT AVBL

$$

PMZ181-170600-
REPUBLIC OF THE MARSHALL ISLANDS-

CITY           SKY/WX    TMP DP  RH WIND       PRES   REMARKS
KWAJALEIN AP   SUNNY     86  73  66 SW9       29.78F HX  93
MAJURO AP      PTSUNNY   84  77  79 SW7       29.76S HX  94
MAJURO WSO     PTSUNNY   84  77  79 SW7       29.76F HX  94

$$




USA.gov is the U.S. government's official web portal to all federal, state and local government web resources and services.